Orbital Elements
Epoch 2026 July 19.0 TT = JDT 2461240.5
T 2026 Aug. 5.00998 TT Rudenko
q 1.4179636 (2000.0) P Q
n 0.14291188 Peri. 18.51314 +0.98876068 -0.14148789
a 3.6231849 Node 349.27100 +0.08168756 +0.78187417
e 0.6086417 Incl. 15.03938 +0.12521767 +0.60716881
P 6.90
From 6656 observations 2005 May 20-2020 Mar. 10, mean residual 0".7.
|